This is the latest recevied weather packets stored in our database for station/object IZ1UQG-N2. If no packets are shown the sender has not sent any weather packets the latest 10 day(s).
| Time | Temp. | Humidity | Pressure | Rain* | Wind** | Luminosity | Snow |
|---|---|---|---|---|---|---|---|
| 1777989529 | 11.67° C | 90% | 1011.7 hPa | 0.25 mm | - | 79 W/m² | - |
| 1777989470 | 11.67° C | 89% | 1011.7 hPa | 0.25 mm | - | 77 W/m² | - |
| 1777989428 | 11.67° C | 89% | 1011.7 hPa | 0.25 mm | - | 77 W/m² | - |
| 1777989410 | 11.67° C | 89% | 1011.7 hPa | 0.25 mm | - | 77 W/m² | - |
| 1777989350 | 11.67° C | 89% | 1011.8 hPa | 0 mm | - | 72 W/m² | - |
| 1777989290 | 11.67° C | 90% | 1011.8 hPa | 0 mm | - | 70 W/m² | - |
| 1777989248 | 11.67° C | 90% | 1011.8 hPa | 0 mm | - | 70 W/m² | - |
| 1777989229 | 11.67° C | 90% | 1011.8 hPa | 0 mm | - | 69 W/m² | - |
| 1777989169 | 11.67° C | 90% | 1011.7 hPa | 0 mm | - | 69 W/m² | - |
| 1777989109 | 11.67° C | 90% | 1011.9 hPa | 0 mm | - | 67 W/m² | - |
| 1777989069 | 11.67° C | 90% | 1011.9 hPa | 0 mm | - | 67 W/m² | - |
| 1777989051 | 11.67° C | 89% | 1011.9 hPa | 0 mm | - | 67 W/m² | - |
| 1777988991 | 11.67° C | 89% | 1011.9 hPa | 0 mm | - | 65 W/m² | - |
| 1777988930 | 11.67° C | 89% | 1011.9 hPa | 0.25 mm | - | 65 W/m² | - |
| 1777988888 | 11.67° C | 89% | 1011.9 hPa | 0.25 mm | - | 65 W/m² | - |
| 1777988870 | 11.67° C | 90% | 1011.9 hPa | 0.25 mm | - | 69 W/m² | - |
| 1777988810 | 11.67° C | 90% | 1011.8 hPa | 0.25 mm | - | 72 W/m² | - |
| 1777988750 | 11.67° C | 90% | 1011.9 hPa | 0.25 mm | - | 77 W/m² | - |
| 1777988707 | 11.67° C | 90% | 1011.9 hPa | 0.25 mm | - | 77 W/m² | - |
| 1777988691 | 11.67° C | 89% | 1011.9 hPa | 0.25 mm | - | 77 W/m² | - |
| 1777988630 | 11.67° C | 90% | 1011.9 hPa | 0.25 mm | - | 76 W/m² | - |
| 1777988569 | 11.67° C | 90% | 1011.9 hPa | 0.25 mm | - | 72 W/m² | - |
| 1777988528 | 11.67° C | 90% | 1011.9 hPa | 0.25 mm | - | 72 W/m² | - |
| 1777988510 | 11.67° C | 90% | 1012 hPa | 0.25 mm | - | 70 W/m² | - |
| 1777988450 | 11.67° C | 89% | 1012 hPa | 0.25 mm | - | 69 W/m² | - |
* Rain latest hour (hover to see other rain measurements)
** Current wind speed in m/s (hover to see current wind gust speed)